Hourly Data Report for September 17, 2003

TORONTO CITY
ONTARIO

43°40'00.000" N
79°24'00.000" W
112.50 m
6158355
71508
XTO

Download Data

Hourly Data (September 2003)
Hourly Data Report for September 17, 2003
TIME
LST
Temp Definition
°C
Dew Point Definition
°C
Rel Hum Definition
%
Precip. Amount Definition
mm

Wind Dir Definition
10's deg

Wind Spd Definition
km/h
Visibility Definition
km
Stn Press Definition
kPa
Hmdx Definition


Wind Chill Definition


Weather Definition


00:00 15.1 10.8 75   LegendMM LegendMM LegendMM 100.85     LegendNANA
01:00 14.8 10.6 76   LegendMM LegendMM LegendMM 100.87     LegendNANA
02:00 15.4 11.2 76   LegendMM LegendMM LegendMM 100.87     LegendNANA
03:00 14.4 10.5 77   LegendMM LegendMM LegendMM 100.92     LegendNANA
04:00 14.0 10.8 81   LegendMM LegendMM LegendMM 100.96     LegendNANA
05:00 14.1 10.8 81   LegendMM LegendMM LegendMM 101.02     LegendNANA
06:00 15.6 11.8 78   LegendMM LegendMM LegendMM 101.10     LegendNANA
07:00 16.4 13.6 84   LegendMM LegendMM LegendMM 101.15     LegendNANA
08:00 18.6 16.3 86   LegendMM LegendMM LegendMM 101.19     LegendNANA
09:00 19.9 16.0 78   LegendMM LegendMM LegendMM 101.21     LegendNANA
10:00 21.7 15.5 68   LegendMM LegendMM LegendMM 101.24 26   LegendNANA
11:00 22.4 14.3 60   LegendMM LegendMM LegendMM 101.26 26   LegendNANA
12:00 23.6 13.4 53   LegendMM LegendMM LegendMM 101.25 27   LegendNANA
13:00 23.7 13.7 53   LegendMM LegendMM LegendMM 101.23 27   LegendNANA
14:00 23.2 12.5 51   LegendMM LegendMM LegendMM 101.22 26   LegendNANA
15:00 22.3 13.4 57   LegendMM LegendMM LegendMM 101.17 25   LegendNANA
16:00 21.7 14.5 64   LegendMM LegendMM LegendMM 101.15 25   LegendNANA
17:00 21.3 14.2 64   LegendMM LegendMM LegendMM 101.17 25   LegendNANA
18:00 20.4 14.0 67   LegendMM LegendMM LegendMM 101.20     LegendNANA
19:00 19.7 14.2 71   LegendMM LegendMM LegendMM 101.22     LegendNANA
20:00 19.7 13.7 68   LegendMM LegendMM LegendMM 101.24     LegendNANA
21:00 19.3 13.8 70   LegendMM LegendMM LegendMM 101.26     LegendNANA
22:00 19.2 15.3 78   LegendMM LegendMM LegendMM 101.27     LegendNANA
23:00 18.8 15.5 81   LegendMM LegendMM LegendMM 101.27     LegendNANA

Notes on Data Quality.

Legend

  • E = Estimated
  • M = Missing
  • NA = Not Available*
  • [empty] = Indicates an unobserved value
Date modified: